BRONNOYSUND/BRONNOY current weather conditions

sailwx.info

Wind from 170 at 17 knots

Air temperature 6.0° C
Visibility: greater than 5.4 NM
Dewpoint -4.0° C

Last reported at 2019-Dec-11 20:20 UTC.
Time now 2019-Dec-11 21:41 UTC

Location: N 65°28' E 012°13'.
View on Google Maps.

See reports from other nearby stations

  
Tides and Currents Weather Stations Pressure Air Temp Water Temp Dewpoint Dewpoint Depression Visibility Wind Speed Wind Dir Waves Ship Positions
date/time (UTC)wind fromknots sea level pressurealtimeterstation pressurevisibilityair tempwater tempwave heightnotes
2019-Dec-11 20:20 170 17 5.4 6.0
2019-Dec-11 19:50 160 18 5.4 6.0
2019-Dec-11 19:20 160 19 5.4 6.0
2019-Dec-11 18:50 150 20 gusting 29 5.4 6.0
2019-Dec-11 18:20 150 15 gusting 26 5.4 6.0
2019-Dec-11 17:50 150 15 5.4 5.0
2019-Dec-11 17:20 160 14 5.4 6.0
2019-Dec-11 16:50 160 13 5.4 5.0
2019-Dec-11 16:20 170 8 5.4 4.0
2019-Dec-11 15:50 220 14 5.4 4.0 Rain showers.
2019-Dec-11 15:20 240 17 5.4 3.0 Light rain showers.
2019-Dec-11 14:50 190 15 5.4 6.0 Showers in the vicinity.
2019-Dec-11 14:20 180 18 5.4 7.0 Thunderstorm.
2019-Dec-11 13:50 180 14 5.4 6.0 Thunderstorm.
2019-Dec-11 13:20 190 18 5.4 6.0 Showers in the vicinity.
2019-Dec-11 12:50 190 17 5.4 6.0 Showers in the vicinity.
2019-Dec-11 12:20 190 17 5.4 6.0
2019-Dec-11 11:50 190 19 5.4 6.0 Showers in the vicinity.
2019-Dec-11 11:20 200 19 5.4 6.0 Showers in the vicinity.
2019-Dec-11 10:50 190 17 5.4 6.0
2019-Dec-11 10:20 200 15 5.4 6.0
2019-Dec-11 09:50 190 17 5.4 5.0 Light rain showers.
2019-Dec-11 09:20 190 13 5.4 5.0 Light rain showers.
2019-Dec-11 08:50 200 13 4.9 5.0 Light rain showers.
2019-Dec-11 08:20 170 15 gusting 26 5.4 6.0 Light rain showers.
2019-Dec-11 07:50 170 15 gusting 26 5.4 6.0 Light rain showers.
2019-Dec-11 07:20 170 15 gusting 26 5.4 6.0 Light rain showers.
2019-Dec-11 06:50 170 20 gusting 32 5.4 5.0 Light rain showers.
2019-Dec-11 06:20 160 15 gusting 26 5.4 5.0 Light rain showers.
2019-Dec-11 05:50 160 21 gusting 34 5.4 4.0 Light rain showers.
2019-Dec-11 05:20 150 22 gusting 34 5.4 4.0 Light rain showers.
2019-Dec-11 04:50 150 22 3.8 3.0 Rain.
2019-Dec-11 04:20 150 22 gusting 34 5.4 4.0 Light rain.
2019-Dec-11 03:50 140 21 gusting 34 2.7 3.0 Light rain.
2019-Dec-11 03:20 140 21 gusting 36 5.4 3.0 Light rain snow.
2019-Dec-11 02:50 150 24 gusting 35 5.4 3.0 Light rain snow.
2019-Dec-11 02:20 140 19 gusting 39 5.4 3.0 Light rain snow.
2019-Dec-11 01:50 140 25 gusting 35 5.4 3.0 Light rain.
2019-Dec-11 01:20 140 14 gusting 28 5.4 3.0 Light drizzle.
2019-Dec-11 00:50 130 19 gusting 35 5.4 3.0
2019-Dec-11 00:20 140 21 gusting 35 5.4 3.0
2019-Dec-10 23:50 140 25 gusting 36 5.4 3.0 Light drizzle.
2019-Dec-10 23:20 150 27 gusting 42 5.4 3.0 Light drizzle.
2019-Dec-10 22:50 150 28 gusting 46 5.4 2.0 Light drizzle.
2019-Dec-10 22:20 140 28 gusting 46 5.4 2.0
2019-Dec-10 21:50 140 22 gusting 35 5.4 2.0
2019-Dec-10 21:20 140 26 gusting 36 5.4 2.0
2019-Dec-10 20:50 130 24 gusting 40 5.4 2.0
2019-Dec-10 20:20 130 19 gusting 29 5.4 2.0
2019-Dec-10 19:50 130 26 gusting 39 5.4 1.0
2019-Dec-10 19:20 130 27 gusting 41 5.4 1.0
2019-Dec-10 18:50 140 24 gusting 40 5.4 2.0
2019-Dec-10 18:20 130 24 gusting 38 5.4 2.0
2019-Dec-10 17:50 140 20 gusting 38 5.4 1.0
2019-Dec-10 17:20 140 19 gusting 28 5.4 1.0
2019-Dec-10 16:50 140 13 gusting 27 5.4 1.0
2019-Dec-10 16:20 130 17 gusting 27 5.4 1.0
2019-Dec-10 15:50 120 19 5.4 1.0
2019-Dec-10 15:20 110 18 gusting 27 5.4 1.0
2019-Dec-10 14:50 120 19 gusting 29 5.4 1.0
2019-Dec-10 14:20 120 17 gusting 27 5.4 1.0
2019-Dec-10 13:50 120 14 gusting 25 5.4 1.0
2019-Dec-10 13:20 130 15 5.4-0.0
2019-Dec-10 12:50 140 14 5.4-0.0
2019-Dec-10 12:20 140 13 5.4-0.0
2019-Dec-10 11:50 140 13 5.4-0.0
2019-Dec-10 11:20 160 11 5.4-0.0 Showers in the vicinity.
2019-Dec-10 10:50 170 8 5.4-0.0 Showers in the vicinity.
2019-Dec-10 10:20 150 6 5.4-2.0 Showers in the vicinity.
2019-Dec-10 09:50 5.4-2.0 Showers in the vicinity.
2019-Dec-10 09:20 5.4-2.0 Showers in the vicinity.
2019-Dec-10 08:50 170 6 5.4-2.0 Showers in the vicinity.
2019-Dec-10 08:20 5.4-2.0 Showers in the vicinity.
2019-Dec-10 07:50 190 6 5.4-1.0 Showers in the vicinity.
2019-Dec-10 07:20 210 7 5.4-1.0 Showers in the vicinity.
2019-Dec-10 06:50 180 8 5.4-1.0
2019-Dec-10 06:20 180 6 5.4-1.0 Light snow showers.
2019-Dec-10 05:50 180 4 1.6-1.0 Light snow showers.
2019-Dec-10 05:20 220 4 2.7-1.0 Light snow showers.
2019-Dec-10 04:50 5.4-1.0
2019-Dec-10 04:20 090 2 5.4-1.0
2019-Dec-10 03:50 360 6 5.4-0.0 Light rain snow.
2019-Dec-10 03:20 320 12 0.4-0.0 Light rain snow.
2019-Dec-10 02:50 5.4-0.0 Light rain showers.
2019-Dec-10 02:20 060 4 5.4-0.0 Light rain snow.
2019-Dec-10 01:50 5.4-0.0 Light rain snow.
2019-Dec-10 01:20 5.4 1.0 Light rain snow.
2019-Dec-10 00:50 340 4 5.4 1.0 Light rain showers.
2019-Dec-10 00:20 360 2 5.4-0.0
2019-Dec-09 23:50 020 7 5.4 1.0 Light rain showers.
2019-Dec-09 23:20 010 8 5.4 1.0 Light rain snow.
2019-Dec-09 22:50 020 14 5.4 1.0 Light snow.
2019-Dec-09 22:20 360 13 gusting 24 5.4 2.0 Light rain snow.
2019-Dec-09 21:50 360 20 5.4 1.0 Light rain snow.
2019-Dec-09 21:20 350 19 gusting 28 5.4 2.0 Light snow showers.